Zurück zum Katalog

STARLINK-2442

AktivKommunikationVLEO
NORAD 48106·PAYLOAD·🇺🇸 United States

Gestartet Apr 7, 2021 von Cape Canaveral Space Force Station

Loading…

Nächste Überflüge (nächste 24 Stunden)

TLE

AktuellSource: CelesTrak SupGP

Epoche: Sep 15, 2026, 02:41 UTC

1 48106C 21027Q   26258.11229167  .00134420  00000+0  43275-2 0  2587
2 48106  53.1584 351.1285 0001244  97.8250  64.1854 15.31599162    15

Verfolge STARLINK-2442 in Echtzeit mit AllMySat

Download on the App Store